GFSFLT2_prec_kuchsnow_267.txt.gz
Snowfall_Accumulation
0.0 0.0 0.0 0.0 0.0 0.0 0.0 0.0 0.0 0.0 0.0 0.0 0.0 0.0 0.0 0.0 0.0 0.0 0.0 0.0 0.0 0.0 0.0 0.0 0.0 0.0 0.0
0.0 0.3 0.4 0.1 0.2 0.0 0.0 0.0 0.0 0.0 0.0 0.0 0.0 0.0 0.0 0.0 0.0 0.0 0.0 0.0 0.0 0.0 0.0 0.0 0.0 0.0 0.0
0.3 0.8 1.3 0.9 2.0 1.6 1.1 0.0 0.0 0.0 0.0 0.0 0.0 0.0 0.0 0.0 0.0 0.0 0.0 0.0 0.0 0.0 0.0 0.0 0.0 0.0 0.0
0.3 1.0 0.8 0.5 0.3 0.4 0.4 0.2 0.0 0.0 0.0 0.0 0.0 0.0 0.0 0.0 0.0 0.0 0.0 0.0 0.0 0.0 0.0 0.0 0.0 0.0 0.0
0.9 0.3 0.3 0.3 0.3 0.2 0.1 0.0 0.0 0.0 0.0 0.0 0.0 0.0 0.0 0.0 0.0 0.0 0.0 0.0 0.0 0.0 0.0 0.0 0.0 0.0 0.0
0.4 0.0 0.0 0.0 0.0 0.0 0.2 0.9 1.8 0.2 0.3 0.1 0.0 0.1 0.0 0.0 0.0 0.0 0.0 0.0 0.0 0.0 0.0 0.0 0.0 0.0 0.0
0.0 0.0 0.0 0.0 0.4 0.5 1.3 2.0 1.7 2.9 1.7 2.4 1.1 1.4 0.0 0.0 0.0 0.0 0.0 0.0 0.0 0.0 0.0 0.0 0.0 0.0 0.0
0.0 0.0 0.1 0.1 0.3 0.5 1.0 3.3 2.3 1.4 0.8 1.2 0.4 0.2 0.0 0.2 0.0 0.0 0.0 0.0 0.0 0.0 0.0 0.0 0.0 0.0 0.0
0.0 0.0 0.0 0.0 0.0 0.2 1.3 1.7 1.5 0.0 0.0 0.3 0.1 0.0 0.0 0.0 0.0 0.0 0.0 0.0 0.0 0.0 0.0 0.0 0.0 0.0 0.0
0.0 0.0 0.0 0.0 0.0 0.0 0.2 3.5 2.4 2.1 0.0 2.1 0.2 0.7 3.8 0.0 0.0 0.0 0.0 0.0 0.0 0.0 0.0 0.0 0.0 0.0 0.1
0.0 0.0 0.0 0.0 0.0 0.0 0.0 1.7 6.5 5.2 0.0 5.0 7.9 1.3 6.9 1.9 0.0 0.0 0.0 0.0 0.0 0.0 0.0 0.0 0.1 0.1 0.8
0.1 0.0 0.0 0.0 0.0 0.1 0.1 0.1 0.2 2.0 0.3 0.6 14.9 5.4 10.8 8.6 1.3 0.0 0.3 0.3 0.5 0.8 0.6 0.0 0.0 0.0 0.1
0.3 0.1 0.0 0.0 0.0 0.2 0.1 0.7 0.6 0.0 0.0 0.1 3.3 4.7 10.0 13.0 6.4 1.2 1.0 0.3 0.8 0.9 1.1 1.6 1.5 0.4 0.9
0.7 0.1 0.1 0.5 1.3 1.2 2.0 1.5 3.4 1.7 1.2 2.0 2.3 4.4 11.1 4.9 6.0 4.7 0.8 2.8 0.9 1.2 1.9 1.3 1.2 1.4 2.0
1.2 1.6 1.3 1.4 1.5 1.2 2.5 3.3 7.1 3.8 4.3 2.6 2.3 2.8 2.8 4.5 9.3 1.6 1.6 1.7 1.1 2.2 2.6 2.1 1.0 1.9 2.5
2.9 2.7 4.0 3.9 3.4 4.5 4.5 5.9 7.2 3.2 5.2 5.4 6.2 9.4 8.2 6.4 1.2 5.0 4.0 1.9 2.0 1.5 2.1 5.8 3.0 0.8 0.5
5.3 5.4 6.8 6.1 6.3 6.2 4.3 5.2 5.8 3.6 4.9 6.2 9.3 15.7 22.4 9.2 2.8 1.4 7.0 5.9 3.6 3.6 2.7 3.7 4.6 1.9 1.0

GFSFLT2_prec_kuchsnow_270.txt.gz
Snowfall_Accumulation
0.0 0.0 0.0 0.0 0.0 0.0 0.0 0.0 0.0 0.0 0.0 0.0 0.0 0.0 0.0 0.0 0.0 0.0 0.0 0.0 0.0 0.0 0.0 0.0 0.0 0.0 0.0
0.0 0.3 0.4 0.1 0.2 0.0 0.0 0.0 0.0 0.0 0.0 0.0 0.0 0.0 0.0 0.0 0.0 0.0 0.0 0.0 0.0 0.0 0.0 0.0 0.0 0.0 0.0
0.3 0.8 1.3 0.9 2.0 1.6 1.1 0.0 0.0 0.0 0.0 0.0 0.0 0.0 0.0 0.0 0.0 0.0 0.0 0.0 0.0 0.0 0.0 0.0 0.0 0.0 0.0
0.3 1.0 0.8 0.5 0.3 0.4 0.4 0.2 0.0 0.0 0.0 0.0 0.0 0.0 0.0 0.0 0.0 0.0 0.0 0.0 0.0 0.0 0.0 0.0 0.0 0.0 0.0
0.9 0.3 0.3 0.3 0.3 0.2 0.1 0.0 0.0 0.0 0.0 0.0 0.0 0.0 0.0 0.0 0.0 0.0 0.0 0.0 0.0 0.0 0.0 0.0 0.0 0.0 0.0
0.4 0.0 0.0 0.0 0.0 0.0 0.2 0.9 1.9 0.2 0.3 0.1 0.0 0.1 0.0 0.0 0.0 0.0 0.0 0.0 0.0 0.0 0.0 0.0 0.0 0.0 0.0
0.0 0.0 0.0 0.0 0.4 0.5 1.3 2.0 1.8 3.0 1.7 2.5 1.1 1.4 0.0 0.0 0.0 0.0 0.0 0.0 0.0 0.0 0.0 0.0 0.0 0.0 0.0
0.0 0.0 0.1 0.1 0.3 0.5 1.0 3.3 2.3 1.4 0.8 1.2 0.4 0.2 0.0 0.2 0.0 0.0 0.0 0.0 0.0 0.0 0.0 0.0 0.0 0.0 0.0
0.0 0.0 0.0 0.0 0.0 0.2 1.3 1.7 1.5 0.0 0.0 0.3 0.1 0.0 0.0 0.0 0.0 0.0 0.0 0.0 0.0 0.0 0.0 0.0 0.0 0.0 0.0
0.0 0.0 0.0 0.0 0.0 0.0 0.2 3.5 2.4 2.1 0.0 2.1 0.2 0.7 3.8 0.0 0.0 0.0 0.0 0.0 0.0 0.0 0.0 0.0 0.0 0.0 0.1
0.0 0.0 0.0 0.0 0.0 0.0 0.0 1.7 6.5 5.2 0.0 5.0 7.9 1.3 6.9 1.9 0.0 0.0 0.0 0.0 0.0 0.0 0.0 0.0 0.1 0.1 0.8
0.1 0.0 0.0 0.0 0.0 0.1 0.1 0.1 0.2 2.0 0.3 0.6 14.9 5.4 10.8 8.6 1.3 0.0 0.3 0.3 0.5 0.8 0.6 0.0 0.0 0.0 0.1
0.3 0.1 0.0 0.0 0.0 0.2 0.1 0.7 0.6 0.0 0.0 0.1 3.3 4.7 10.0 13.0 6.4 1.2 1.0 0.3 0.8 0.9 1.1 1.6 1.5 0.4 0.9
0.7 0.1 0.1 0.5 1.3 1.2 2.0 1.5 3.4 1.7 1.2 2.0 2.3 4.4 11.1 4.9 6.0 4.7 0.8 2.8 0.9 1.2 1.9 1.3 1.2 1.4 2.0
1.2 1.6 1.3 1.4 1.5 1.2 2.5 3.3 7.1 3.8 4.3 2.6 2.3 2.8 2.8 4.5 9.3 1.6 1.6 1.7 1.1 2.2 2.6 2.1 1.0 1.9 2.5
2.9 2.7 4.0 3.9 3.4 4.5 4.5 5.9 7.2 3.2 5.2 5.4 6.2 9.4 8.2 6.4 1.2 5.0 4.0 1.9 2.0 1.5 2.1 5.8 3.0 0.8 0.5
5.3 5.5 6.8 6.1 6.3 6.2 4.3 5.2 5.8 3.6 4.9 6.2 9.3 15.7 22.4 9.2 2.8 1.4 7.0 5.9 3.6 3.6 2.7 3.7 4.6 1.9 1.0

GFSFLT2_prec_kuchsnow_273.txt.gz
Snowfall_Accumulation
0.0 0.0 0.0 0.0 0.0 0.0 0.0 0.0 0.0 0.0 0.0 0.0 0.0 0.0 0.0 0.0 0.0 0.0 0.0 0.0 0.0 0.0 0.0 0.0 0.0 0.0 0.0
0.0 0.3 0.4 0.1 0.2 0.0 0.0 0.0 0.0 0.0 0.0 0.0 0.0 0.0 0.0 0.0 0.0 0.0 0.0 0.0 0.0 0.0 0.0 0.0 0.0 0.0 0.0
0.3 0.8 1.3 0.9 2.0 1.6 1.1 0.0 0.0 0.0 0.0 0.0 0.0 0.0 0.0 0.0 0.0 0.0 0.0 0.0 0.0 0.0 0.0 0.0 0.0 0.0 0.0
0.3 1.0 0.8 0.5 0.3 0.4 0.4 0.2 0.0 0.0 0.0 0.0 0.0 0.0 0.0 0.0 0.0 0.0 0.0 0.0 0.0 0.0 0.0 0.0 0.0 0.0 0.0
0.9 0.3 0.3 0.3 0.3 0.2 0.1 0.0 0.0 0.0 0.0 0.0 0.0 0.0 0.0 0.0 0.0 0.0 0.0 0.0 0.0 0.0 0.0 0.0 0.0 0.0 0.0
0.4 0.0 0.0 0.0 0.0 0.0 0.2 0.9 2.0 0.2 0.3 0.5 0.0 0.1 0.0 0.0 0.0 0.0 0.0 0.0 0.0 0.0 0.0 0.0 0.0 0.0 0.0
0.0 0.0 0.0 0.0 0.4 0.5 1.3 2.0 1.8 3.1 1.7 2.6 1.1 1.4 0.0 0.0 0.0 0.0 0.0 0.0 0.0 0.0 0.0 0.0 0.0 0.0 0.0
0.0 0.0 0.1 0.1 0.3 0.5 1.0 3.3 2.4 1.5 0.8 1.2 0.4 0.2 0.0 0.2 0.0 0.0 0.0 0.0 0.0 0.0 0.0 0.0 0.0 0.0 0.0
0.0 0.0 0.0 0.0 0.0 0.2 1.3 1.7 1.5 0.0 0.0 0.3 0.1 0.0 0.0 0.0 0.0 0.0 0.0 0.0 0.0 0.0 0.0 0.0 0.0 0.0 0.0
0.4 0.2 0.1 0.0 0.0 0.0 0.2 3.5 2.4 2.1 0.0 2.1 0.2 0.7 3.8 0.0 0.0 0.0 0.0 0.0 0.0 0.0 0.0 0.0 0.0 0.0 0.1
0.1 0.0 0.0 0.0 0.0 0.0 0.0 1.7 6.5 5.2 0.0 5.0 7.9 1.3 6.9 1.9 0.0 0.0 0.0 0.0 0.0 0.0 0.0 0.0 0.1 0.1 0.8
0.1 0.0 0.0 0.0 0.0 0.1 0.1 0.1 0.2 2.0 0.3 0.6 14.9 5.4 10.8 8.6 1.3 0.0 0.3 0.3 0.5 0.8 0.6 0.0 0.0 0.0 0.1
0.3 0.1 0.0 0.0 0.0 0.2 0.1 0.7 0.6 0.0 0.0 0.1 3.3 4.7 10.0 13.0 6.4 1.2 1.0 0.3 0.8 0.9 1.1 1.6 1.5 0.4 0.9
0.7 0.1 0.1 0.5 1.3 1.2 2.0 1.5 3.4 1.7 1.2 2.0 2.3 4.4 11.1 4.9 6.0 4.7 0.8 2.8 0.9 1.2 1.9 1.3 1.2 1.4 2.0
1.2 1.6 1.3 1.4 1.5 1.2 2.5 3.3 7.1 3.8 4.3 2.6 2.3 2.8 2.8 4.5 9.3 1.6 1.6 1.7 1.1 2.2 2.6 2.1 1.0 1.9 2.5
2.9 2.7 4.0 3.9 3.4 4.5 4.5 5.9 7.2 3.2 5.2 5.4 6.2 9.4 8.2 6.4 1.2 5.0 4.0 1.9 2.0 1.5 2.1 5.8 3.0 0.8 0.5
5.3 5.5 6.8 6.1 6.3 6.2 4.3 5.2 5.8 3.6 4.9 6.2 9.3 15.7 22.4 9.2 2.8 1.4 7.0 5.9 3.6 3.6 2.7 3.7 4.6 1.9 1.0

GFSFLT2_prec_kuchsnow_276.txt.gz
Snowfall_Accumulation
0.0 0.0 0.0 0.0 0.0 0.0 0.0 0.0 0.0 0.0 0.0 0.0 0.0 0.0 0.0 0.0 0.0 0.0 0.0 0.0 0.0 0.0 0.0 0.0 0.0 0.0 0.0
0.0 0.3 0.4 0.1 0.2 0.0 0.0 0.0 0.0 0.0 0.0 0.0 0.0 0.0 0.0 0.0 0.0 0.0 0.0 0.0 0.0 0.0 0.0 0.0 0.0 0.0 0.0
0.3 0.8 1.3 0.9 2.0 1.6 1.1 0.0 0.0 0.0 0.0 0.0 0.0 0.0 0.0 0.0 0.0 0.0 0.0 0.0 0.0 0.0 0.0 0.0 0.0 0.0 0.0
0.3 1.0 0.8 0.5 0.3 0.4 0.4 0.2 0.0 0.0 0.0 0.0 0.0 0.0 0.0 0.0 0.0 0.0 0.0 0.0 0.0 0.0 0.0 0.0 0.0 0.0 0.0
0.9 0.3 0.3 0.3 0.3 0.2 0.1 0.0 0.0 0.0 0.0 0.0 0.0 0.0 0.0 0.0 0.0 0.0 0.0 0.0 0.0 0.0 0.0 0.0 0.0 0.0 0.0
0.4 0.0 0.0 0.0 0.0 0.0 0.2 0.9 2.1 0.2 0.3 0.5 0.0 0.1 0.0 0.0 0.0 0.0 0.0 0.0 0.0 0.0 0.0 0.0 0.0 0.0 0.0
0.0 0.0 0.0 0.0 0.4 0.5 1.3 2.0 1.8 3.1 1.7 3.0 1.1 1.4 0.0 0.0 0.0 0.0 0.0 0.0 0.0 0.0 0.0 0.0 0.0 0.0 0.0
0.0 0.0 0.1 0.1 0.3 0.5 1.0 3.3 2.6 1.6 0.8 1.4 0.4 0.3 0.0 0.2 0.0 0.0 0.0 0.0 0.0 0.0 0.0 0.0 0.0 0.0 0.0
0.0 0.0 0.0 0.0 0.0 0.2 1.3 1.8 1.5 0.1 0.0 0.3 0.1 0.0 0.0 0.0 0.0 0.0 0.0 0.0 0.0 0.0 0.0 0.0 0.0 0.0 0.0
0.8 0.2 0.1 0.0 0.0 0.0 0.2 3.5 2.4 2.1 0.0 2.1 0.2 0.7 3.8 0.0 0.0 0.0 0.0 0.0 0.0 0.0 0.0 0.0 0.0 0.0 0.1
0.5 0.4 0.3 0.2 0.1 0.0 0.0 1.7 6.5 5.2 0.0 5.0 7.9 1.3 6.9 1.9 0.0 0.0 0.0 0.0 0.0 0.0 0.0 0.0 0.1 0.1 0.8
0.2 0.1 0.1 0.1 0.0 0.1 0.1 0.1 0.2 2.0 0.3 0.6 14.9 5.4 10.8 8.6 1.3 0.0 0.3 0.3 0.5 0.8 0.6 0.0 0.0 0.0 0.1
0.3 0.1 0.0 0.0 0.0 0.2 0.1 0.7 0.6 0.0 0.0 0.1 3.3 4.7 10.0 13.0 6.4 1.2 1.0 0.3 0.8 0.9 1.1 1.6 1.5 0.4 0.9
0.7 0.1 0.1 0.5 1.3 1.2 2.0 1.5 3.4 1.7 1.2 2.0 2.3 4.4 11.1 4.9 6.0 4.7 0.8 2.8 0.9 1.2 1.9 1.3 1.2 1.4 2.0
1.2 1.6 1.3 1.4 1.5 1.2 2.5 3.3 7.1 3.8 4.3 2.6 2.3 2.8 2.8 4.5 9.3 1.6 1.6 1.7 1.1 2.2 2.6 2.1 1.0 1.9 2.5
2.9 2.7 4.0 3.9 3.4 4.5 4.5 5.9 7.2 3.2 5.2 5.4 6.2 9.4 8.2 6.4 1.2 5.0 4.0 1.9 2.0 1.5 2.1 5.8 3.0 0.8 0.5
5.3 5.5 6.8 6.1 6.3 6.2 4.3 5.2 5.8 3.6 4.9 6.2 9.3 15.7 22.4 9.2 2.8 1.4 7.0 5.9 3.6 3.6 2.7 3.7 4.6 1.9 1.0

GFSFLT2_prec_kuchsnow_279.txt.gz
Snowfall_Accumulation
0.0 0.0 0.0 0.0 0.0 0.0 0.0 0.0 0.0 0.0 0.0 0.0 0.0 0.0 0.0 0.0 0.0 0.0 0.0 0.0 0.0 0.0 0.0 0.0 0.0 0.0 0.0
0.0 0.3 0.4 0.1 0.2 0.0 0.0 0.0 0.0 0.0 0.0 0.0 0.0 0.0 0.0 0.0 0.0 0.0 0.0 0.0 0.0 0.0 0.0 0.0 0.0 0.0 0.0
0.3 0.8 1.3 0.9 2.0 1.6 1.1 0.0 0.0 0.0 0.0 0.0 0.0 0.0 0.0 0.0 0.0 0.0 0.0 0.0 0.0 0.0 0.0 0.0 0.0 0.0 0.0
0.3 1.0 0.8 0.5 0.3 0.4 0.4 0.2 0.0 0.0 0.0 0.0 0.0 0.0 0.0 0.0 0.0 0.0 0.0 0.0 0.0 0.0 0.0 0.0 0.0 0.0 0.0
0.9 0.3 0.3 0.3 0.3 0.2 0.1 0.0 0.0 0.0 0.0 0.0 0.0 0.0 0.0 0.0 0.0 0.0 0.0 0.0 0.0 0.0 0.0 0.0 0.0 0.0 0.0
0.4 0.0 0.0 0.0 0.0 0.0 0.2 0.9 2.4 0.2 0.3 0.5 0.0 0.1 0.0 0.0 0.0 0.0 0.0 0.0 0.0 0.0 0.0 0.0 0.0 0.0 0.0
0.0 0.0 0.0 0.0 0.4 0.5 1.3 2.0 1.8 3.1 1.7 3.4 1.1 1.4 0.0 0.0 0.0 0.0 0.0 0.0 0.0 0.0 0.0 0.0 0.0 0.0 0.0
0.0 0.0 0.1 0.1 0.3 0.5 1.0 3.3 2.6 2.0 0.8 1.6 0.5 0.4 0.0 0.2 0.0 0.0 0.0 0.0 0.0 0.0 0.0 0.0 0.0 0.0 0.0
0.0 0.0 0.0 0.0 0.0 0.2 1.3 2.2 2.2 0.5 0.1 0.3 0.2 0.1 0.0 0.0 0.0 0.0 0.0 0.0 0.0 0.0 0.0 0.0 0.0 0.0 0.0
0.8 0.2 0.1 0.0 0.0 0.0 0.2 3.8 2.7 2.4 0.0 2.1 0.3 0.7 3.8 0.0 0.0 0.0 0.0 0.0 0.0 0.0 0.0 0.0 0.0 0.0 0.1
1.0 0.9 0.9 0.8 0.1 0.0 0.0 1.9 6.6 5.2 0.0 5.0 7.9 1.3 6.9 1.9 0.0 0.0 0.0 0.0 0.0 0.0 0.0 0.0 0.1 0.1 0.8
0.6 0.8 0.7 0.8 0.5 0.4 0.2 0.1 0.2 2.0 0.3 0.6 14.9 5.4 10.8 8.6 1.3 0.0 0.3 0.3 0.5 0.8 0.6 0.0 0.0 0.0 0.1
0.7 0.4 0.3 0.2 0.1 0.2 0.1 0.7 0.6 0.0 0.0 0.1 3.3 4.7 10.0 13.0 6.4 1.2 1.0 0.3 0.8 0.9 1.1 1.6 1.5 0.4 0.9
0.8 0.2 0.1 0.5 1.3 1.2 2.0 1.5 3.4 1.7 1.2 2.0 2.3 4.4 11.1 4.9 6.0 4.7 0.8 2.8 0.9 1.2 1.9 1.3 1.2 1.4 2.0
1.2 1.6 1.3 1.4 1.5 1.2 2.5 3.3 7.1 3.8 4.3 2.6 2.3 2.8 2.8 4.5 9.3 1.6 1.6 1.7 1.1 2.2 2.6 2.1 1.0 1.9 2.5
2.9 2.7 4.0 3.9 3.4 4.5 4.5 5.9 7.2 3.2 5.2 5.4 6.2 9.4 8.2 6.4 1.2 5.0 4.0 1.9 2.0 1.5 2.1 5.8 3.0 0.8 0.5
5.3 5.6 7.0 6.2 6.3 6.2 4.3 5.2 5.8 3.6 4.9 6.2 9.3 15.7 22.4 9.2 2.8 1.4 7.0 5.9 3.6 3.6 2.7 3.7 4.6 1.9 1.0

GFSFLT2_prec_kuchsnow_285.txt.gz
Snowfall_Accumulation
0.0 0.0 0.0 0.0 0.0 0.0 0.0 0.0 0.0 0.0 0.0 0.0 0.0 0.0 0.0 0.0 0.0 0.0 0.0 0.0 0.0 0.0 0.0 0.0 0.0 0.0 0.0
0.0 0.3 0.4 0.1 0.2 0.0 0.0 0.0 0.0 0.0 0.0 0.0 0.0 0.0 0.0 0.0 0.0 0.0 0.0 0.0 0.0 0.0 0.0 0.0 0.0 0.0 0.0
0.3 0.8 1.3 0.9 2.0 1.6 1.1 0.0 0.0 0.0 0.0 0.0 0.0 0.0 0.0 0.0 0.0 0.0 0.0 0.0 0.0 0.0 0.0 0.0 0.0 0.0 0.0
0.3 1.0 0.8 0.5 0.3 0.4 0.4 0.2 0.0 0.0 0.0 0.0 0.0 0.0 0.0 0.0 0.0 0.0 0.0 0.0 0.0 0.0 0.0 0.0 0.0 0.0 0.0
0.9 0.3 0.3 0.3 0.3 0.2 0.1 0.0 0.0 0.0 0.0 0.0 0.0 0.0 0.0 0.0 0.0 0.0 0.0 0.0 0.0 0.0 0.0 0.0 0.0 0.0 0.0
0.4 0.0 0.0 0.0 0.0 0.0 0.2 0.9 2.9 0.2 0.3 0.5 0.0 0.1 0.0 0.0 0.0 0.0 0.0 0.0 0.0 0.0 0.0 0.0 0.0 0.0 0.0
0.0 0.0 0.0 0.0 0.4 0.5 1.3 2.0 1.8 3.1 1.7 5.5 1.1 1.4 0.0 0.0 0.0 0.0 0.0 0.0 0.0 0.0 0.0 0.0 0.0 0.0 0.0
0.0 0.0 0.1 0.1 0.3 0.5 1.0 3.3 3.6 2.8 0.8 3.6 2.2 1.4 0.0 0.2 0.0 0.0 0.0 0.0 0.0 0.0 0.0 0.0 0.0 0.0 0.0
0.0 0.0 0.0 0.0 0.0 0.2 1.3 3.1 4.4 2.3 1.7 1.4 1.6 1.2 0.6 0.2 0.0 0.0 0.0 0.0 0.0 0.0 0.0 0.0 0.0 0.0 0.0
0.8 0.2 0.1 0.0 0.0 0.0 0.2 4.3 4.2 4.4 1.5 3.5 1.4 1.3 4.4 0.4 0.1 0.0 0.0 0.0 0.0 0.0 0.0 0.0 0.0 0.0 0.1
1.0 1.3 1.5 1.6 0.1 0.0 0.0 1.9 8.1 6.4 0.7 5.7 8.7 1.8 7.1 2.0 0.1 0.0 0.0 0.0 0.0 0.0 0.0 0.0 0.1 0.1 0.8
1.0 1.3 1.5 1.6 1.5 2.2 2.0 1.7 1.5 2.1 1.0 1.0 15.4 5.4 10.9 8.7 1.3 0.0 0.3 0.3 0.5 0.8 0.6 0.0 0.0 0.0 0.1
1.1 0.9 1.0 1.0 1.6 1.5 1.2 1.6 1.1 0.2 0.3 0.3 3.4 4.8 10.0 13.0 6.4 1.2 1.0 0.3 0.8 0.9 1.1 1.6 1.5 0.4 0.9
1.2 0.6 0.5 0.9 2.1 1.9 2.4 1.6 3.4 1.7 1.3 2.0 2.3 4.4 11.1 4.9 6.0 4.7 0.8 2.8 0.9 1.2 1.9 1.3 1.2 1.4 2.0
1.6 1.9 1.4 1.4 1.7 1.3 2.5 3.3 7.1 3.8 4.3 2.6 2.3 2.8 2.8 4.5 9.3 1.6 1.6 1.7 1.1 2.2 2.6 2.1 1.0 1.9 2.5
3.3 3.1 4.3 4.1 3.5 4.7 4.6 5.9 7.2 3.2 5.2 5.4 6.2 9.4 8.2 6.4 1.2 5.0 4.0 1.9 2.0 1.5 2.1 5.8 3.0 0.8 0.5
5.8 6.2 8.0 7.2 7.2 6.9 4.4 5.2 5.8 3.6 4.9 6.2 9.3 15.7 22.4 9.2 2.8 1.4 7.0 5.9 3.6 3.6 2.7 3.7 4.6 1.9 1.0

GFSFLT2_prec_kuchsnow_288.txt.gz
Snowfall_Accumulation
0.0 0.0 0.0 0.0 0.0 0.0 0.0 0.0 0.0 0.0 0.0 0.0 0.0 0.0 0.0 0.0 0.0 0.0 0.0 0.0 0.0 0.0 0.0 0.0 0.0 0.0 0.0
0.0 0.3 0.4 0.1 0.2 0.0 0.0 0.0 0.0 0.0 0.0 0.0 0.0 0.0 0.0 0.0 0.0 0.0 0.0 0.0 0.0 0.0 0.0 0.0 0.0 0.0 0.0
0.3 0.8 1.3 0.9 2.0 1.6 1.1 0.0 0.0 0.0 0.0 0.0 0.0 0.0 0.0 0.0 0.0 0.0 0.0 0.0 0.0 0.0 0.0 0.0 0.0 0.0 0.0
0.3 1.0 0.8 0.5 0.3 0.4 0.4 0.2 0.0 0.0 0.0 0.0 0.0 0.0 0.0 0.0 0.0 0.0 0.0 0.0 0.0 0.0 0.0 0.0 0.0 0.0 0.0
0.9 0.3 0.3 0.3 0.3 0.2 0.1 0.0 0.0 0.0 0.0 0.0 0.0 0.0 0.0 0.0 0.0 0.0 0.0 0.0 0.0 0.0 0.0 0.0 0.0 0.0 0.0
0.4 0.0 0.0 0.0 0.0 0.0 0.2 0.9 2.9 0.2 0.3 0.5 0.0 0.1 0.0 0.0 0.0 0.0 0.0 0.0 0.0 0.0 0.0 0.0 0.0 0.0 0.0
0.0 0.0 0.0 0.0 0.4 0.5 1.3 2.0 1.8 3.1 1.7 6.3 1.1 1.4 0.0 0.0 0.0 0.0 0.0 0.0 0.0 0.0 0.0 0.0 0.0 0.0 0.0
0.0 0.0 0.1 0.1 0.3 0.5 1.0 3.3 3.6 2.8 0.8 4.5 3.2 2.6 0.0 0.2 0.0 0.0 0.0 0.0 0.0 0.0 0.0 0.0 0.0 0.0 0.0
0.0 0.0 0.0 0.0 0.0 0.2 1.3 3.1 4.4 2.7 2.3 2.0 2.8 2.4 1.4 0.2 0.0 0.0 0.0 0.0 0.0 0.0 0.0 0.0 0.0 0.0 0.0
0.8 0.2 0.1 0.0 0.0 0.0 0.2 4.4 4.5 5.0 2.0 4.4 2.6 2.2 5.4 0.9 0.4 0.1 0.0 0.0 0.0 0.0 0.0 0.0 0.0 0.0 0.1
1.0 1.3 1.5 1.6 0.1 0.0 0.0 1.9 8.4 7.0 0.9 6.2 9.6 2.5 7.3 2.5 0.5 0.2 0.0 0.0 0.0 0.0 0.0 0.0 0.1 0.1 0.8
1.0 1.3 1.5 1.6 1.6 2.3 2.2 1.7 1.5 2.1 1.5 1.0 15.9 5.6 11.2 9.1 1.3 0.0 0.3 0.3 0.5 0.8 0.6 0.0 0.0 0.0 0.1
1.1 0.9 1.0 1.0 1.6 1.5 1.8 2.3 1.7 1.1 1.2 1.0 3.8 5.4 10.4 13.2 6.4 1.2 1.0 0.3 0.8 0.9 1.1 1.6 1.5 0.4 0.9
1.2 0.6 0.5 0.9 2.1 2.2 2.9 2.1 3.8 2.4 2.1 2.3 2.7 4.7 11.2 4.9 6.0 4.7 0.8 2.8 0.9 1.2 1.9 1.3 1.2 1.4 2.0
1.6 1.9 1.4 1.4 1.7 1.5 2.8 3.5 7.5 4.5 4.8 2.6 2.3 2.8 2.8 4.5 9.3 1.6 1.6 1.7 1.1 2.2 2.6 2.1 1.0 1.9 2.5
3.3 3.1 4.3 4.1 3.7 5.1 5.0 6.3 7.5 3.4 5.2 5.4 6.2 9.4 8.2 6.4 1.2 5.0 4.0 1.9 2.0 1.5 2.1 5.8 3.0 0.8 0.5
5.8 6.2 8.0 7.4 7.5 7.1 4.4 5.2 5.8 3.6 4.9 6.2 9.3 15.7 22.4 9.2 2.8 1.4 7.0 5.9 3.6 3.6 2.7 3.7 4.6 1.9 1.0